CGGTM CYHZ-CYYT

Flight info

Callsign CGGTM
Flight time 1h 22m
Altitude 41000
Route IGTAS DCT NOTOP DCT SILRO DCT TIGOR TIGOR5
Aircraft CL60/M-SBDE1E2E3FGHIJ1J4J5J7M3RWXYZ/LB1V1D1

Departure

Time 2026-04-22 06:26
Airport Halifax / Stanfield International Airport (CYHZ)

Arrival

Time 2026-04-22 07:49
Airport St. John's International Airport (CYYT)
Time Latitude Longitude Altitude Speed Heading
2026-04-22 06:14 44.86747 -63.53303 454 ft 0 kts 219°
2026-04-22 06:24 44.86735 -63.53234 453 ft 13 kts 84°
2026-04-22 06:24 44.86755 -63.53113 456 ft 8 kts 70°
2026-04-22 06:24 44.86728 -63.53033 456 ft 12 kts 128°
2026-04-22 06:25 44.86671 -63.52913 454 ft 17 kts 121°
2026-04-22 06:25 44.86649 -63.52864 454 ft 0 kts 123°
2026-04-22 06:25 44.86637 -63.52840 453 ft 5 kts 125°
2026-04-22 06:25 44.86602 -63.52771 452 ft 11 kts 124°
2026-04-22 06:26 44.86619 -63.52671 455 ft 12 kts 34°
2026-04-22 06:26 44.86864 -63.52431 469 ft 91 kts 34°
2026-04-22 06:26 44.87636 -63.51668 682 ft 167 kts 34°
2026-04-22 06:26 44.88593 -63.50682 1801 ft 185 kts 35°
2026-04-22 06:27 44.89642 -63.49566 2894 ft 193 kts 36°
2026-04-22 06:27 44.90644 -63.48423 4142 ft 193 kts 36°
2026-04-22 06:27 44.91656 -63.47218 5399 ft 198 kts 39°
2026-04-22 06:27 44.92429 -63.45618 6655 ft 212 kts 62°
2026-04-22 06:28 44.93017 -63.43655 7910 ft 231 kts 63°
2026-04-22 06:28 44.93658 -63.41511 9160 ft 250 kts 63°
2026-04-22 06:28 44.94348 -63.39211 10397 ft 266 kts 63°
2026-04-22 06:28 44.95079 -63.36774 11636 ft 281 kts 64°
2026-04-22 06:29 44.95839 -63.34238 12873 ft 294 kts 65°
2026-04-22 06:29 44.96640 -63.31564 14118 ft 304 kts 65°
2026-04-22 06:29 44.97469 -63.28796 15316 ft 313 kts 65°
2026-04-22 06:29 44.98323 -63.25946 16324 ft 326 kts 66°
2026-04-22 06:30 44.99209 -63.22984 17315 ft 338 kts 66°
2026-04-22 06:30 45.00141 -63.19871 18319 ft 347 kts 66°
2026-04-22 06:30 45.01077 -63.16739 19305 ft 354 kts 66°
2026-04-22 06:30 45.02037 -63.13525 20279 ft 360 kts 66°
2026-04-22 06:31 45.03020 -63.10233 21046 ft 371 kts 66°
2026-04-22 06:31 45.04029 -63.06852 21794 ft 381 kts 66°
2026-04-22 06:31 45.05071 -63.03355 22549 ft 389 kts 66°
2026-04-22 06:31 45.06116 -62.99846 23289 ft 396 kts 66°
2026-04-22 06:32 45.07186 -62.96256 23978 ft 403 kts 65°
2026-04-22 06:32 45.08458 -62.92677 24605 ft 410 kts 59°
2026-04-22 06:32 45.09902 -62.89151 25182 ft 418 kts 58°
2026-04-22 06:32 45.11350 -62.85608 25675 ft 426 kts 59°
2026-04-22 06:33 45.12851 -62.81928 26204 ft 434 kts 59°
2026-04-22 06:33 45.14357 -62.78228 26704 ft 441 kts 59°
2026-04-22 06:33 45.15905 -62.74421 27213 ft 447 kts 60°
2026-04-22 06:33 45.17453 -62.70608 27713 ft 452 kts 60°
2026-04-22 06:34 45.19017 -62.66748 28162 ft 456 kts 60°
2026-04-22 06:34 45.20587 -62.62868 28656 ft 457 kts 61°
2026-04-22 06:34 45.22158 -62.58983 29155 ft 458 kts 61°
2026-04-22 06:34 45.23753 -62.55031 29656 ft 459 kts 61°
2026-04-22 06:35 45.25326 -62.51130 30166 ft 458 kts 61°
2026-04-22 06:35 45.26890 -62.47244 30598 ft 461 kts 62°
2026-04-22 06:35 45.28487 -62.43268 30880 ft 467 kts 62°
2026-04-22 06:35 45.30100 -62.39247 31135 ft 473 kts 62°
2026-04-22 06:36 45.31733 -62.35174 31384 ft 478 kts 62°
2026-04-22 06:36 45.33383 -62.31049 31720 ft 479 kts 63°
2026-04-22 06:36 45.35007 -62.26986 32134 ft 478 kts 63°
2026-04-22 06:36 45.36648 -62.22875 32574 ft 475 kts 63°
2026-04-22 06:37 45.38264 -62.18821 32996 ft 473 kts 63°
2026-04-22 06:37 45.39865 -62.14797 33400 ft 472 kts 63°
2026-04-22 06:37 45.41472 -62.10753 33830 ft 471 kts 63°
2026-04-22 06:37 45.43082 -62.06693 34213 ft 471 kts 63°
2026-04-22 06:38 45.44680 -62.02665 34589 ft 471 kts 63°
2026-04-22 06:38 45.46390 -61.98724 34959 ft 472 kts 59°
2026-04-22 06:38 45.48257 -61.94840 35308 ft 473 kts 58°
2026-04-22 06:38 45.50102 -61.90996 35630 ft 473 kts 58°
2026-04-22 06:39 45.51963 -61.87108 35930 ft 473 kts 58°
2026-04-22 06:39 45.53796 -61.83275 36214 ft 474 kts 58°
2026-04-22 06:39 45.55667 -61.79354 36485 ft 475 kts 58°
2026-04-22 06:39 45.57511 -61.75483 36730 ft 476 kts 58°
2026-04-22 06:40 45.59359 -61.71598 36968 ft 477 kts 58°
2026-04-22 06:40 45.61231 -61.67656 37204 ft 478 kts 58°
2026-04-22 06:40 45.63073 -61.63771 37434 ft 478 kts 58°
2026-04-22 06:40 45.64937 -61.59832 37669 ft 479 kts 58°
2026-04-22 06:41 45.66791 -61.55912 37908 ft 479 kts 58°
2026-04-22 06:41 45.68641 -61.51991 38187 ft 478 kts 58°
2026-04-22 06:41 45.70492 -61.48065 38454 ft 478 kts 58°
2026-04-22 06:41 45.72351 -61.44113 38727 ft 478 kts 58°
2026-04-22 06:42 45.74208 -61.40163 38980 ft 477 kts 58°
2026-04-22 06:42 45.76042 -61.36254 39211 ft 477 kts 59°
2026-04-22 06:42 45.77889 -61.32312 39441 ft 477 kts 59°
2026-04-22 06:42 45.79722 -61.28394 39621 ft 478 kts 59°
2026-04-22 06:43 45.81561 -61.24457 39810 ft 478 kts 59°
2026-04-22 06:43 45.83399 -61.20517 40010 ft 478 kts 59°
2026-04-22 06:43 45.85257 -61.16530 40197 ft 478 kts 59°
2026-04-22 06:43 45.87096 -61.12574 40370 ft 478 kts 60°
2026-04-22 06:44 45.88914 -61.08660 40534 ft 478 kts 60°
2026-04-22 06:44 45.90759 -61.04684 40715 ft 477 kts 59°
2026-04-22 06:44 45.92594 -61.00721 40868 ft 477 kts 60°
2026-04-22 06:44 45.94410 -60.96795 41003 ft 478 kts 60°
2026-04-22 06:45 45.96249 -60.92812 41102 ft 478 kts 59°
2026-04-22 06:45 45.98082 -60.88838 41228 ft 479 kts 59°
2026-04-22 06:45 45.99917 -60.84852 41239 ft 481 kts 60°
2026-04-22 06:46 46.03610 -60.76816 41225 ft 481 kts 60°
2026-04-22 06:46 46.07281 -60.68803 41209 ft 483 kts 60°
2026-04-22 06:47 46.10965 -60.60739 41199 ft 487 kts 60°
2026-04-22 06:47 46.14686 -60.52571 41200 ft 489 kts 60°
2026-04-22 06:48 46.18395 -60.44413 41208 ft 490 kts 60°
2026-04-22 06:48 46.22125 -60.36184 41216 ft 491 kts 59°
2026-04-22 06:49 46.25847 -60.27946 41223 ft 493 kts 60°
2026-04-22 06:49 46.29575 -60.19667 41228 ft 494 kts 60°
2026-04-22 06:50 46.33300 -60.11372 41220 ft 496 kts 60°
2026-04-22 06:50 46.37068 -60.02954 41219 ft 498 kts 61°
2026-04-22 06:51 46.40803 -59.94582 41212 ft 501 kts 61°
2026-04-22 06:51 46.44583 -59.86086 41218 ft 504 kts 61°
2026-04-22 06:52 46.48372 -59.77543 41219 ft 504 kts 61°
2026-04-22 06:52 46.52137 -59.69029 41197 ft 503 kts 61°
2026-04-22 06:53 46.55883 -59.60533 41198 ft 502 kts 61°
2026-04-22 06:53 46.59613 -59.52031 41188 ft 501 kts 62°
2026-04-22 06:54 46.62575 -59.43016 41180 ft 491 kts 76°
2026-04-22 06:54 46.64326 -59.33534 41176 ft 489 kts 81°
2026-04-22 06:55 46.65979 -59.23984 41172 ft 489 kts 81°
2026-04-22 06:55 46.67622 -59.14435 41186 ft 487 kts 81°
2026-04-22 06:56 46.69256 -59.04879 41175 ft 487 kts 81°
2026-04-22 06:56 46.70879 -58.95328 41159 ft 486 kts 81°
2026-04-22 06:57 46.72481 -58.85849 41151 ft 484 kts 81°
2026-04-22 06:57 46.74072 -58.76380 41159 ft 483 kts 81°
2026-04-22 06:58 46.75662 -58.66856 41181 ft 484 kts 82°
2026-04-22 06:58 46.77239 -58.57357 41157 ft 485 kts 81°
2026-04-22 06:59 46.78812 -58.47827 41156 ft 485 kts 81°
2026-04-22 06:59 46.80373 -58.38330 41169 ft 483 kts 82°
2026-04-22 07:00 46.81927 -58.28807 41154 ft 483 kts 82°
2026-04-22 07:00 46.83470 -58.19302 41140 ft 483 kts 82°
2026-04-22 07:01 46.85007 -58.09778 41154 ft 482 kts 82°
2026-04-22 07:01 46.86530 -58.00285 41142 ft 483 kts 82°
2026-04-22 07:02 46.88047 -57.90774 41127 ft 483 kts 82°
2026-04-22 07:02 46.89559 -57.81245 41127 ft 482 kts 82°
2026-04-22 07:03 46.91052 -57.71774 41115 ft 482 kts 82°
2026-04-22 07:03 46.92549 -57.62222 41120 ft 484 kts 82°
2026-04-22 07:04 46.94037 -57.52677 41115 ft 484 kts 82°
2026-04-22 07:04 46.95524 -57.43080 41113 ft 484 kts 82°
2026-04-22 07:05 46.96997 -57.33512 41109 ft 484 kts 83°
2026-04-22 07:05 46.98430 -57.23965 41104 ft 481 kts 85°
2026-04-22 07:06 46.99569 -57.14382 41104 ft 480 kts 86°
2026-04-22 07:06 47.00699 -57.04723 41106 ft 480 kts 86°
2026-04-22 07:07 47.01810 -56.95159 41099 ft 481 kts 86°
2026-04-22 07:07 47.02916 -56.85566 41087 ft 480 kts 86°
2026-04-22 07:08 47.04017 -56.75943 41100 ft 480 kts 86°
2026-04-22 07:08 47.05113 -56.66297 41068 ft 481 kts 86°
2026-04-22 07:09 47.06193 -56.56716 41074 ft 479 kts 86°
2026-04-22 07:09 47.07271 -56.47078 41095 ft 479 kts 86°
2026-04-22 07:10 47.08332 -56.37517 41073 ft 479 kts 86°
2026-04-22 07:10 47.09397 -56.27838 41065 ft 480 kts 87°
2026-04-22 07:11 47.10450 -56.18198 41051 ft 480 kts 87°
2026-04-22 07:11 47.11487 -56.08599 41050 ft 479 kts 88°
2026-04-22 07:12 47.12504 -55.99011 41066 ft 480 kts 87°
2026-04-22 07:12 47.13539 -55.89346 41055 ft 478 kts 88°
2026-04-22 07:13 47.14553 -55.79791 41056 ft 477 kts 88°
2026-04-22 07:13 47.15561 -55.70189 41051 ft 479 kts 88°
2026-04-22 07:14 47.16564 -55.60550 41052 ft 480 kts 88°
2026-04-22 07:14 47.17562 -55.50879 41053 ft 479 kts 88°
2026-04-22 07:15 47.18547 -55.41257 41039 ft 479 kts 88°
2026-04-22 07:15 47.19528 -55.31578 41027 ft 480 kts 89°
2026-04-22 07:16 47.20497 -55.21937 41032 ft 479 kts 89°
2026-04-22 07:16 47.21459 -55.12272 41011 ft 480 kts 89°
2026-04-22 07:17 47.22412 -55.02630 41017 ft 479 kts 89°
2026-04-22 07:17 47.23354 -54.93002 41050 ft 479 kts 89°
2026-04-22 07:18 47.24292 -54.83326 41036 ft 481 kts 89°
2026-04-22 07:18 47.25226 -54.73600 41035 ft 481 kts 89°
2026-04-22 07:19 47.26151 -54.63886 41028 ft 482 kts 89°
2026-04-22 07:19 47.27071 -54.54140 41032 ft 481 kts 89°
2026-04-22 07:20 47.27974 -54.44486 40951 ft 479 kts 89°
2026-04-22 07:20 47.28424 -54.39595 40121 ft 493 kts 89°
2026-04-22 07:20 47.28886 -54.34539 38893 ft 501 kts 91°
2026-04-22 07:20 47.29347 -54.29519 37686 ft 502 kts 91°
2026-04-22 07:21 47.29812 -54.24474 36485 ft 493 kts 91°
2026-04-22 07:21 47.30269 -54.19546 35724 ft 478 kts 92°
2026-04-22 07:21 47.30704 -54.14808 34918 ft 473 kts 92°
2026-04-22 07:21 47.31135 -54.09988 34039 ft 477 kts 92°
2026-04-22 07:22 47.31564 -54.05188 33060 ft 474 kts 92°
2026-04-22 07:22 47.31992 -54.00409 32146 ft 471 kts 92°
2026-04-22 07:22 47.32413 -53.95684 31233 ft 467 kts 92°
2026-04-22 07:22 47.32829 -53.90978 30305 ft 464 kts 92°
2026-04-22 07:23 47.33239 -53.86323 29382 ft 460 kts 92°
2026-04-22 07:23 47.33645 -53.81740 28469 ft 446 kts 92°
2026-04-22 07:23 47.34038 -53.77303 27614 ft 433 kts 92°
2026-04-22 07:23 47.34416 -53.72986 26762 ft 421 kts 91°
2026-04-22 07:24 47.34781 -53.68798 25943 ft 411 kts 92°
2026-04-22 07:24 47.35138 -53.64650 25134 ft 406 kts 91°
2026-04-22 07:24 47.35485 -53.60572 24360 ft 404 kts 91°
2026-04-22 07:24 47.35831 -53.56483 23544 ft 400 kts 91°
2026-04-22 07:25 47.36170 -53.52484 22781 ft 394 kts 90°
2026-04-22 07:25 47.36504 -53.48516 21989 ft 387 kts 91°
2026-04-22 07:25 47.36831 -53.44653 21238 ft 380 kts 90°
2026-04-22 07:25 47.37151 -53.40842 20502 ft 376 kts 90°
2026-04-22 07:26 47.37466 -53.37030 19754 ft 373 kts 90°
2026-04-22 07:26 47.37776 -53.33294 18978 ft 370 kts 91°
2026-04-22 07:26 47.38081 -53.29581 18245 ft 365 kts 90°
2026-04-22 07:26 47.38386 -53.25891 17529 ft 362 kts 91°
2026-04-22 07:27 47.38685 -53.22240 16814 ft 359 kts 91°
2026-04-22 07:27 47.38982 -53.18612 16111 ft 355 kts 92°
2026-04-22 07:27 47.39270 -53.15077 15418 ft 350 kts 92°
2026-04-22 07:27 47.39556 -53.11556 14744 ft 345 kts 91°
2026-04-22 07:28 47.40113 -53.04663 13395 ft 337 kts 92°
2026-04-22 07:28 47.40387 -53.01274 12737 ft 325 kts 92°
2026-04-22 07:28 47.40650 -52.98025 12112 ft 315 kts 92°
2026-04-22 07:29 47.40901 -52.94902 11499 ft 305 kts 92°
2026-04-22 07:29 47.41145 -52.91850 10914 ft 296 kts 92°
2026-04-22 07:29 47.41381 -52.88880 10341 ft 289 kts 92°
2026-04-22 07:29 47.41608 -52.86006 9782 ft 282 kts 92°
2026-04-22 07:30 47.41832 -52.83156 9227 ft 275 kts 92°
2026-04-22 07:30 47.42048 -52.80408 8692 ft 269 kts 91°
2026-04-22 07:30 47.42259 -52.77697 8166 ft 263 kts 92°
2026-04-22 07:30 47.42462 -52.75075 7652 ft 257 kts 91°
2026-04-22 07:31 47.42663 -52.72488 7146 ft 252 kts 92°
2026-04-22 07:31 47.42860 -52.69936 6654 ft 247 kts 92°
2026-04-22 07:31 47.43109 -52.67459 6169 ft 246 kts 81°
2026-04-22 07:31 47.43863 -52.65219 5702 ft 246 kts 59°
2026-04-22 07:32 47.44945 -52.63354 5187 ft 234 kts 54°
2026-04-22 07:32 47.45999 -52.61594 4735 ft 221 kts 53°
2026-04-22 07:32 47.47203 -52.60266 4172 ft 222 kts 32°
2026-04-22 07:32 47.48686 -52.59668 3672 ft 222 kts
2026-04-22 07:33 47.50190 -52.59939 3246 ft 218 kts 346°
2026-04-22 07:33 47.51490 -52.60997 2967 ft 209 kts 325°
2026-04-22 07:33 47.52606 -52.62418 2862 ft 214 kts 322°
2026-04-22 07:33 47.53710 -52.63834 2576 ft 209 kts 323°
2026-04-22 07:34 47.54788 -52.65203 2214 ft 197 kts 325°
2026-04-22 07:34 47.55774 -52.66470 1908 ft 179 kts 326°
2026-04-22 07:34 47.56664 -52.67616 1662 ft 161 kts 326°
2026-04-22 07:34 47.57469 -52.68647 1466 ft 144 kts 326°
2026-04-22 07:35 47.58189 -52.69566 1275 ft 131 kts 327°
2026-04-22 07:35 47.58862 -52.70421 1088 ft 125 kts 327°
2026-04-22 07:35 47.59505 -52.71237 912 ft 117 kts 326°
2026-04-22 07:35 47.60106 -52.72004 738 ft 117 kts 326°
2026-04-22 07:36 47.60713 -52.72794 528 ft 113 kts 324°
2026-04-22 07:36 47.61303 -52.73557 433 ft 111 kts 322°
2026-04-22 07:36 47.61881 -52.74301 510 ft 111 kts 324°
2026-04-22 07:36 47.62585 -52.75187 906 ft 157 kts 325°
2026-04-22 07:37 47.63500 -52.76260 1763 ft 175 kts 329°
2026-04-22 07:37 47.64454 -52.77457 2558 ft 195 kts 325°
2026-04-22 07:37 47.65453 -52.78979 2877 ft 218 kts 304°
2026-04-22 07:37 47.65800 -52.81174 2956 ft 224 kts 263°
2026-04-22 07:38 47.65226 -52.83279 2969 ft 223 kts 235°
2026-04-22 07:38 47.64350 -52.85159 2972 ft 224 kts 232°
2026-04-22 07:38 47.63438 -52.87048 2976 ft 224 kts 231°
2026-04-22 07:38 47.62521 -52.88940 2975 ft 225 kts 232°
2026-04-22 07:39 47.61406 -52.90473 2975 ft 219 kts 201°
2026-04-22 07:39 47.59974 -52.91054 2969 ft 212 kts 178°
2026-04-22 07:39 47.58524 -52.90845 2970 ft 203 kts 156°
2026-04-22 07:39 47.57282 -52.89997 2958 ft 196 kts 139°
2026-04-22 07:40 47.56292 -52.88665 2974 ft 191 kts 126°
2026-04-22 07:40 47.55413 -52.87178 2968 ft 192 kts 125°
2026-04-22 07:40 47.54538 -52.85701 2964 ft 191 kts 125°
2026-04-22 07:40 47.53658 -52.84214 2967 ft 190 kts 126°
2026-04-22 07:41 47.52787 -52.82743 2956 ft 191 kts 126°
2026-04-22 07:41 47.51922 -52.81286 2964 ft 190 kts 126°
2026-04-22 07:41 47.51049 -52.79818 2956 ft 189 kts 126°
2026-04-22 07:41 47.50183 -52.78362 2952 ft 189 kts 127°
2026-04-22 07:42 47.49311 -52.76899 2950 ft 189 kts 127°
2026-04-22 07:42 47.48449 -52.75449 2951 ft 189 kts 127°
2026-04-22 07:42 47.47580 -52.73989 2953 ft 189 kts 127°
2026-04-22 07:42 47.46715 -52.72539 2950 ft 188 kts 127°
2026-04-22 07:43 47.45846 -52.71083 2949 ft 188 kts 126°
2026-04-22 07:43 47.44987 -52.69643 2965 ft 188 kts 128°
2026-04-22 07:43 47.44164 -52.68163 2948 ft 185 kts 118°
2026-04-22 07:43 47.43847 -52.66397 2969 ft 175 kts 88°
2026-04-22 07:44 47.44191 -52.64714 2973 ft 176 kts 60°
2026-04-22 07:44 47.44971 -52.63295 2968 ft 179 kts 53°
2026-04-22 07:44 47.45797 -52.61899 2965 ft 178 kts 53°
2026-04-22 07:44 47.46609 -52.60515 2965 ft 179 kts 53°
2026-04-22 07:45 47.47520 -52.59258 2955 ft 185 kts 36°
2026-04-22 07:45 47.48761 -52.58685 2961 ft 195 kts
2026-04-22 07:45 47.50097 -52.59183 2961 ft 207 kts 330°
2026-04-22 07:45 47.51233 -52.60549 2943 ft 213 kts 322°
2026-04-22 07:46 47.52358 -52.62002 2677 ft 217 kts 323°
2026-04-22 07:46 47.53488 -52.63457 2397 ft 207 kts 325°
2026-04-22 07:46 47.54501 -52.64791 2296 ft 188 kts 325°
2026-04-22 07:46 47.55432 -52.66016 1934 ft 170 kts 326°
2026-04-22 07:47 47.56242 -52.67079 1801 ft 140 kts 329°
2026-04-22 07:47 47.56948 -52.67983 1565 ft 129 kts 329°
2026-04-22 07:47 47.57601 -52.68809 1447 ft 123 kts 330°
2026-04-22 07:47 47.58260 -52.69637 1259 ft 122 kts 329°
2026-04-22 07:48 47.58903 -52.70457 1080 ft 120 kts 330°
2026-04-22 07:48 47.59535 -52.71263 925 ft 121 kts 327°
2026-04-22 07:48 47.60175 -52.72083 724 ft 120 kts 327°
2026-04-22 07:48 47.60794 -52.72882 583 ft 117 kts 326°
2026-04-22 07:49 47.61399 -52.73676 443 ft 111 kts 324°
2026-04-22 07:49 47.61897 -52.74336 436 ft 82 kts 326°
2026-04-22 07:49 47.62218 -52.74718 444 ft 20 kts 315°
2026-04-22 07:49 47.62217 -52.74745 445 ft 11 kts 173°
2026-04-22 07:50 47.62137 -52.74635 443 ft 19 kts 132°
2026-04-22 07:50 47.62010 -52.74452 438 ft 37 kts 137°
2026-04-22 07:50 47.61765 -52.74103 429 ft 56 kts 139°
2026-04-22 07:50 47.61521 -52.73833 423 ft 22 kts 167°
2026-04-22 07:51 47.61387 -52.73821 425 ft 19 kts 184°
2026-04-22 07:51 47.61259 -52.73825 429 ft 8 kts 166°
2026-04-22 07:51 47.61251 -52.73820 429 ft 0 kts 149°
2026-04-22 07:51 47.61221 -52.73814 430 ft 13 kts 193°
2026-04-22 07:52 47.61128 -52.73926 438 ft 25 kts 225°
2026-04-22 07:52 47.61064 -52.74014 443 ft 3 kts 250°
2026-04-22 07:52 47.61046 -52.74042 444 ft 0 kts 179°